Location: Bron Breck
(40.6655°N, 111.8083°W)
Time: 23:26:22
(UTC+00:00)

Envisat - Pass Details

Date: 07 March 2021
Orbit: 764 x 766 km, 98.1° (Epoch: 12 April)

Event Time Altitude Azimuth Distance (km) Brightness Sun altitude
Rises 12:32:01 0° 20° (NNE) 3,240 6.6 -15.8°
Reaches altitude 10° 12:34:28 10° 29° (NNE) 2,309 6.0 -15.4°
Maximum altitude 12:39:14 39° 98° (E) 1,134 4.5 -14.5°
Drops below altitude 10° 12:43:57 10° 167° (SSE) 2,292 5.6 -13.6°
Sets 12:46:22 0° 174° (S) 3,213 6.2 -13.1°
